GW0169 Weather Reports


Display with metric or nautical units.
time (UTC)temp
F
wind
direction
speed
MPH
gust
MPH
rain 1hr
in
rain 24hr
in
rain mn
in
humidity
%
barometer
mb
20260504231539 59 253 6.0 11.0 0.01 0.01 0.01 94 1020.5
20260504230039 59 233 3.0 10.0 0.00 0.00 0.00 94 1020.5
20260504224537 59 256 6.0 13.0 0.00 0.00 0.00 94 1020.1
20260504223042 59 293 6.0 12.0 0.00 0.00 0.00 93 1020.3
20260504221535 59 235 5.0 10.0 0.00 0.00 0.00 93 1020.0
20260504220044 59 258 3.0 6.0 0.00 0.00 0.00 93 1019.9
20260504214545 59 258 3.0 8.0 0.00 0.00 0.00 93 1019.9
20260504213041 59 256 4.0 11.0 0.00 0.00 0.00 93 1019.7
20260504211539 59 260 4.0 14.0 0.00 0.00 0.00 92 1019.7
20260504210037 60 241 6.0 15.0 0.00 0.00 0.00 91 1019.5
20260504204540 60 249 8.0 17.0 0.00 0.00 0.00 91 1019.3
20260504203041 60 243 6.0 12.0 0.00 0.00 0.00 90 1019.1
20260504201545 60 238 4.0 9.0 0.00 0.00 0.00 90 1019.0
20260504200038 61 245 3.0 9.0 0.00 0.00 0.00 90 1018.6
20260504194536 61 255 3.0 8.0 0.00 0.00 0.00 90 1019.1
20260504193036 61 259 3.0 9.0 0.00 0.00 0.00 90 1019.3
20260504191545 62 232 4.0 11.0 0.00 0.00 0.00 89 1018.8
20260504190039 63 282 7.0 12.0 0.00 0.00 0.00 88 1019.2
20260504184552 63 270 3.0 9.0 0.00 0.00 0.00 88 1018.3
20260504183036 63 260 6.0 12.0 0.00 0.00 0.00 87 1018.8
20260504181538 64 271 4.0 11.0 0.00 0.00 0.00 87 1018.7
20260504180035 65 233 7.0 12.0 0.00 0.00 0.00 85 1019.0
20260504174541 66 268 6.0 12.0 0.00 0.00 0.00 84 1019.1
20260504173038 65 180 5.0 11.0 0.00 0.00 0.00 85 1019.0
20260504171538 64 256 6.0 11.0 0.00 0.00 0.00 87 1019.3
20260504081537 47 0 0.0 0.0 0.00 0.00 0.00 94 1019.5
20260504044537 42 0 0.0 1.0 0.00 0.00 0.00 94 1021.2
20260504043037 42 0 0.0 1.0 0.00 0.00 0.00 94 1021.3
20260504041537 42 0 0.0 1.0 0.00 0.00 0.00 94 1021.3
20260504040041 42 0 0.0 1.0 0.00 0.00 0.00 94 1021.6
20260504034542 42 0 0.0 0.0 0.00 0.00 0.00 94 1021.8
20260504033049 42 0 0.0 1.0 0.00 0.00 0.00 95 1022.2
20260504031538 40 0 0.0 0.0 0.00 0.00 0.00 94 1022.2
20260504030038 40 0 0.0 0.0 0.00 0.00 0.00 93 1022.2
20260504024545 40 0 0.0 0.0 0.00 0.00 0.00 93 1022.2
20260504023044 41 0 0.0 1.0 0.00 0.00 0.00 92 1022.4
20260504021548 42 0 0.0 1.0 0.00 0.00 0.00 93 1022.3
20260504020042 42 0 0.0 1.0 0.00 0.00 0.00 93 1022.3
20260504014538 42 0 0.0 1.0 0.00 0.00 0.00 93 1022.2
20260504013045 42 0 0.0 1.0 0.00 0.00 0.00 93 1022.0
20260504011537 42 0 0.0 0.0 0.00 0.00 0.00 93 1022.3
20260504010040 42 0 0.0 1.0 0.00 0.00 0.00 93 1022.5
20260504004551 43 0 0.0 1.0 0.00 0.00 0.00 93 1022.6
20260504003038 41 0 0.0 0.0 0.00 0.00 0.00 92 1022.6
20260504001537 41 0 0.0 0.0 0.00 0.00 0.00 92 1022.5
20260504000037 42 0 0.0 0.0 0.00 0.00 0.00 92 1022.3
20260503234543 42 0 0.0 0.0 0.00 0.00 0.00 91 1022.5
20260503233040 42 0 0.0 0.0 0.00 0.00 0.00 91 1022.5